GW1125 Weather Reports


Display with metric or nautical units.
time (UTC)temp
F
wind
direction
speed
MPH
gust
MPH
rain 1hr
in
rain 24hr
in
rain mn
in
humidity
%
barometer
mb
20260504201617 77 66 1.0 3.0 0.00 0.00 0.00 45 1009.4
20260504201117 76 139 1.0 2.0 0.00 0.00 0.00 41 1009.6
20260504200617 75 204 3.0 4.0 0.00 0.00 0.00 41 1009.6
20260504200117 75 42 2.0 4.0 0.00 0.00 0.00 42 1009.5
20260504195637 77 120 1.0 3.0 0.00 0.00 0.00 42 1009.6
20260504195116 75 0.0 0.0 0.00 0.00 0.00 43 1009.5
20260504194638 75 47 1.0 7.0 0.00 0.00 0.00 42 1009.7
20260504194117 76 12 3.0 3.0 0.00 0.00 0.00 43 1009.6
20260504193617 76 126 1.0 4.0 0.00 0.00 0.00 43 1009.7
20260504193118 75 0.0 0.0 0.00 0.00 0.00 45 1009.5
20260504192617 76 0.0 0.0 0.00 0.00 0.00 43 1009.7
20260504192117 75 110 0.0 2.0 0.00 0.00 0.00 45 1009.8
20260504191617 75 64 1.0 2.0 0.00 0.00 0.00 45 1009.8
20260504191157 76 79 1.0 3.0 0.00 0.00 0.00 45 1009.9
20260504190617 75 112 1.0 3.0 0.00 0.00 0.00 47 1009.7
20260504190118 75 147 1.0 3.0 0.00 0.00 0.00 48 1009.7
20260504185618 75 180 2.0 3.0 0.00 0.00 0.00 46 1009.7
20260504185117 75 0.0 0.0 0.00 0.00 0.00 47 1010.0
20260504184617 76 86 1.0 2.0 0.00 0.00 0.00 46 1010.0
20260504184118 75 0.0 0.0 0.00 0.00 0.00 46 1010.0
20260504183617 74 142 0.0 1.0 0.00 0.00 0.00 47 1010.1
20260504183117 75 99 1.0 2.0 0.00 0.00 0.00 48 1010.1
20260504182637 74 136 0.0 1.0 0.00 0.00 0.00 49 1010.2
20260504182137 75 0.0 0.0 0.00 0.00 0.00 49 1010.1
20260504181617 74 98 0.0 1.0 0.00 0.00 0.00 51 1010.2
20260504181118 73 75 2.0 2.0 0.00 0.00 0.00 51 1010.2
20260504180618 74 0.0 0.0 0.00 0.00 0.00 51 1010.4
20260504180117 72 131 0.0 2.0 0.00 0.00 0.00 51 1010.2
20260504175637 72 173 1.0 3.0 0.00 0.00 0.00 51 1010.2
20260504175137 72 120 0.0 1.0 0.00 0.00 0.00 51 1010.1
20260504174617 71 95 0.0 1.0 0.00 0.00 0.00 53 1010.3
20260504174117 71 204 1.0 3.0 0.00 0.00 0.00 53 1010.2
20260504173617 71 0.0 0.0 0.00 0.00 0.00 56 1010.2
20260504173117 70 119 1.0 2.0 0.00 0.00 0.00 54 1010.3
20260504172638 71 89 2.0 3.0 0.00 0.00 0.00 55 1010.2
20260504172137 70 105 0.0 1.0 0.00 0.00 0.00 58 1010.2
20260504171617 69 147 0.0 1.0 0.00 0.00 0.00 58 1010.5
20260504171118 69 0.0 0.0 0.00 0.00 0.00 58 1010.3
20260504170637 68 117 1.0 2.0 0.00 0.00 0.00 60 1010.4
20260504170117 67 0.0 0.0 0.00 0.00 0.00 62 1010.2
20260504160117 63 107 0.0 1.0 0.00 0.00 0.00 70 1010.1
20260504151117 60 0.0 0.0 0.00 0.00 0.00 74 1009.9
20260504150617 59 0.0 0.0 0.00 0.00 0.00 75 1009.8
20260504150117 58 0.0 0.0 0.00 0.00 0.00 78 1010.0
20260504141117 52 0.0 0.0 0.00 0.00 0.00 90 1009.8
20260504140617 52 0.0 0.0 0.00 0.00 0.00 90 1009.8
20260504140117 52 0.0 0.0 0.00 0.00 0.00 91 1009.7
20260504130617 50 0.0 0.0 0.00 0.00 0.00 93 1009.3
20260504130117 50 0.0 0.0 0.00 0.00 0.00 93 1009.2
20260504120117 51 0.0 0.0 0.00 0.00 0.00 92 1009.1
20260504110617 52 0.0 0.0 0.00 0.00 0.00 90 1008.9
20260504110117 53 0.0 0.0 0.00 0.00 0.00 89 1009.0
20260504100117 54 0.0 0.0 0.00 0.00 0.00 90 1008.9
20260504090137 56 0.0 0.0 0.00 0.00 0.00 86 1008.7
20260504081617 57 0.0 0.0 0.00 0.00 0.00 83 1008.8
20260504081117 56 0.0 0.0 0.00 0.00 0.00 84 1008.9
20260504080617 57 0.0 0.0 0.00 0.00 0.00 84 1008.8
20260504080117 57 0.0 0.0 0.00 0.00 0.00 84 1008.6
20260504070117 59 0.0 0.0 0.00 0.00 0.00 78 1008.7
20260504060117 61 0.0 0.0 0.00 0.00 0.00 72 1008.6
20260504050617 64 0.0 0.0 0.00 0.00 0.00 64 1008.4
20260504050117 65 0.0 0.0 0.00 0.00 0.00 62 1008.5
20260504045617 65 0.0 0.0 0.00 0.00 0.00 61 1008.5
20260504045117 66 0.0 0.0 0.00 0.00 0.00 60 1008.4
20260504044617 67 0.0 0.0 0.00 0.00 0.00 58 1008.3
20260504044117 67 0.0 0.0 0.00 0.00 0.00 58 1008.5
20260504043617 66 0.0 0.0 0.00 0.00 0.00 57 1008.2
20260504043117 66 0.0 0.0 0.00 0.00 0.00 59 1008.2
20260504042617 66 0.0 0.0 0.00 0.00 0.00 59 1008.1
20260504042117 65 0.0 0.0 0.00 0.00 0.00 60 1008.2
20260504041617 65 0.0 0.0 0.00 0.00 0.00 59 1008.2
20260504041117 66 0.0 0.0 0.00 0.00 0.00 59 1008.1
20260504040637 66 0.0 0.0 0.00 0.00 0.00 58 1008.1
20260504040117 66 0.0 0.0 0.00 0.00 0.00 59 1008.1
20260504035617 67 0.0 0.0 0.00 0.00 0.00 57 1008.0
20260504035116 67 0.0 0.0 0.00 0.00 0.00 56 1008.1
20260504034618 68 0.0 0.0 0.00 0.00 0.00 54 1007.9
20260504034138 68 0.0 0.0 0.00 0.00 0.00 55 1007.9
20260504033617 69 0.0 0.0 0.00 0.00 0.00 54 1008.0
20260504033117 69 0.0 0.0 0.00 0.00 0.00 53 1007.8
20260504032617 70 0.0 0.0 0.00 0.00 0.00 51 1007.8
20260504032117 71 0.0 0.0 0.00 0.00 0.00 49 1007.6
20260504031617 71 0.0 0.0 0.00 0.00 0.00 51 1007.8
20260504031157 71 0.0 0.0 0.00 0.00 0.00 49 1007.7
20260504030616 72 0.0 0.0 0.00 0.00 0.00 50 1007.7
20260504030118 73 0.0 0.0 0.00 0.00 0.00 48 1007.7
20260504025617 73 88 0.0 1.0 0.00 0.00 0.00 47 1007.7
20260504025118 74 111 0.0 1.0 0.00 0.00 0.00 46 1007.6
20260504024617 74 0.0 0.0 0.00 0.00 0.00 48 1007.4
20260504024137 74 0.0 0.0 0.00 0.00 0.00 45 1007.4
20260504023617 75 0.0 0.0 0.00 0.00 0.00 46 1007.4
20260504023117 76 0.0 0.0 0.00 0.00 0.00 45 1007.5
20260504022617 76 0.0 0.0 0.00 0.00 0.00 45 1007.4
20260504022117 76 70 0.0 2.0 0.00 0.00 0.00 44 1007.4
20260504021617 77 79 1.0 3.0 0.00 0.00 0.00 45 1007.5
20260504021118 77 89 0.0 1.0 0.00 0.00 0.00 43 1007.4
20260504020617 78 53 0.0 2.0 0.00 0.00 0.00 42 1007.5
20260504020117 78 93 0.0 2.0 0.00 0.00 0.00 42 1007.5
20260504015617 78 80 1.0 2.0 0.00 0.00 0.00 42 1007.6
20260504015117 78 56 1.0 3.0 0.00 0.00 0.00 41 1007.4
20260504014617 79 76 2.0 2.0 0.00 0.00 0.00 41 1007.4
20260504014117 80 327 3.0 6.0 0.00 0.00 0.00 40 1007.6
20260504013616 80 62 1.0 2.0 0.00 0.00 0.00 40 1007.4
20260504013118 80 126 1.0 2.0 0.00 0.00 0.00 39 1007.4
20260504012618 81 0.0 0.0 0.00 0.00 0.00 38 1007.4
20260504012137 82 119 1.0 7.0 0.00 0.00 0.00 37 1007.5
20260504011617 82 16 2.0 4.0 0.00 0.00 0.00 36 1007.5
20260504011117 83 76 2.0 3.0 0.00 0.00 0.00 36 1007.6
20260504010717 82 50 0.0 1.0 0.00 0.00 0.00 36 1007.6
20260504010117 82 144 2.0 4.0 0.00 0.00 0.00 35 1007.8
20260504005617 83 70 1.0 2.0 0.00 0.00 0.00 37 1007.9
20260504005117 83 75 1.0 2.0 0.00 0.00 0.00 36 1007.8
20260504004617 82 107 0.0 1.0 0.00 0.00 0.00 38 1007.8
20260504004117 82 109 1.0 2.0 0.00 0.00 0.00 38 1007.9
20260504003617 82 103 1.0 2.0 0.00 0.00 0.00 38 1008.0
20260504003118 82 85 1.0 1.0 0.00 0.00 0.00 39 1007.9
20260504002617 82 102 0.0 1.0 0.00 0.00 0.00 38 1008.0
20260504002117 82 68 1.0 2.0 0.00 0.00 0.00 38 1008.0
20260504001617 82 53 2.0 4.0 0.00 0.00 0.00 38 1008.1
20260504001117 82 87 1.0 2.0 0.00 0.00 0.00 39 1008.2
20260504000637 82 43 3.0 3.0 0.00 0.00 0.00 39 1008.2
20260504000117 82 135 1.0 4.0 0.00 0.00 0.00 38 1008.3
20260503235618 82 105 0.0 2.0 0.00 0.00 0.00 39 1008.4
20260503235117 82 106 1.0 2.0 0.00 0.00 0.00 38 1008.4
20260503234617 82 42 2.0 3.0 0.00 0.00 0.00 38 1008.3
20260503234117 82 96 1.0 3.0 0.00 0.00 0.00 37 1008.4
20260503233617 83 233 2.0 6.0 0.00 0.00 0.00 36 1008.6
20260503233117 82 43 1.0 4.0 0.00 0.00 0.00 38 1008.5
20260503232617 83 28 1.0 2.0 0.00 0.00 0.00 37 1008.6
20260503232117 82 0.0 0.0 0.00 0.00 0.00 37 1008.8
20260503231617 82 93 1.0 3.0 0.00 0.00 0.00 37 1008.8
20260503231117 82 81 1.0 3.0 0.00 0.00 0.00 36 1008.8
20260503230618 83 52 2.0 4.0 0.00 0.00 0.00 36 1008.9
20260503230118 81 100 3.0 3.0 0.00 0.00 0.00 37 1008.9
20260503225637 81 296 3.0 6.0 0.00 0.00 0.00 37 1009.0
20260503225117 82 21 2.0 4.0 0.00 0.00 0.00 38 1009.2
20260503224637 82 332 1.0 7.0 0.00 0.00 0.00 38 1009.1
20260503224117 82 315 0.0 2.0 0.00 0.00 0.00 38 1009.2
20260503223617 82 77 1.0 4.0 0.00 0.00 0.00 39 1009.2
20260503223117 81 82 1.0 2.0 0.00 0.00 0.00 39 1009.4
20260503222617 82 107 1.0 2.0 0.00 0.00 0.00 38 1009.4
20260503222118 81 157 3.0 8.0 0.00 0.00 0.00 39 1009.3
20260503221617 82 37 1.0 4.0 0.00 0.00 0.00 39 1009.5
20260503221117 81 108 0.0 1.0 0.00 0.00 0.00 39 1009.7
20260503220617 81 68 2.0 3.0 0.00 0.00 0.00 39 1009.8
20260503220117 81 23 1.0 3.0 0.00 0.00 0.00 38 1009.7
20260503215617 80 96 1.0 2.0 0.00 0.00 0.00 39 1009.7
20260503215137 80 88 1.0 3.0 0.00 0.00 0.00 39 1009.8
20260503214616 81 42 2.0 4.0 0.00 0.00 0.00 39 1009.8
20260503214117 80 95 0.0 2.0 0.00 0.00 0.00 40 1009.8
20260503213617 80 67 3.0 6.0 0.00 0.00 0.00 39 1009.8
20260503213117 80 96 2.0 3.0 0.00 0.00 0.00 39 1009.9
20260503212637 80 89 1.0 2.0 0.00 0.00 0.00 40 1010.1
20260503212117 79 126 1.0 3.0 0.00 0.00 0.00 40 1010.2
20260503211617 80 88 0.0 2.0 0.00 0.00 0.00 39 1010.2
20260503211117 79 115 1.0 3.0 0.00 0.00 0.00 39 1010.2
20260503210617 80 124 1.0 2.0 0.00 0.00 0.00 39 1010.1
20260503210117 79 93 1.0 3.0 0.00 0.00 0.00 40 1010.3
20260503205657 80 18 2.0 4.0 0.00 0.00 0.00 40 1010.3
20260503205137 79 124 1.0 2.0 0.00 0.00 0.00 42 1010.4
20260503204617 78 87 1.0 2.0 0.00 0.00 0.00 44 1010.4
20260503204117 78 95 1.0 2.0 0.00 0.00 0.00 44 1010.5
20260503203657 77 95 1.0 3.0 0.00 0.00 0.00 44 1010.6
20260503203117 77 81 2.0 4.0 0.00 0.00 0.00 44 1010.7
20260503202617 77 177 2.0 3.0 0.00 0.00 0.00 44 1010.6
20260503202117 78 322 2.0 7.0 0.00 0.00 0.00 44 1010.8